Location: The Saddle
(36.8333°N, 80.3417°W)
Time: 08:54:35
(UTC-05:00)

S-56A Canister/Altair - Pass Details

Date: 13 December 2023
Orbit: 640 x 2488 km, 38.9° (Epoch: 25 February)

Event Time Altitude Azimuth Distance (km) Brightness Sun altitude
Rises 07:52:03 0° 223° (SW) 4,847 11.5 3.8°
Reaches altitude 10° 07:55:58 10° 217° (SW) 3,544 10.9 4.4°
Maximum altitude 08:03:37 38° 153° (SSE) 1,575 10.0 5.7°
Drops below altitude 10° 08:09:00 10° 86° (E) 2,485 11.1 6.6°
Sets 08:11:18 0° 78° (ENE) 3,264 11.4 6.9°
